Regional Weather Roundup
Issued by NWS Northern Indiana

Home | Current Version | Previous Version | Graphics & Text | Print | Product List | Glossary On
Versions: 1 2 3 4 5 6 7 8 9 10 11 12 13 14 15 16 17 18 19 20 21 22 23 24 25 26 27 28 29 30 31 32 33 34 35 36 37 38 39 40 41 42 43 44 45 46 47 48 49 50
000
ASUS43 KIWX 181500
RWRIWX

KIWX WEATHER ROUNDUP
NATIONAL WEATHER SERVICE NORTHERN INDIANA
1100 AM EDT SAT APR 18 2015

NOTE: "FAIR" INDICATES FEW OR NO CLOUDS BELOW 12,000 FEET WITH NO
SIGNIFICANT WEATHER AND/OR OBSTRUCTIONS TO VISIBILITY.

* THESE STATIONS ARE NOT UNDER NWS QUALITY CONTROL. THEY ALSO MAY NOT
  REPORT WEATHER SUCH AS PRECIPITATION OR FOG.

INZ001>027-181600-
NORTHERN INDIANA

CITY           SKY/WX    TMP DP  RH WIND       PRES   REMARKS
GARY*          PTSUNNY   59  39  47 N12G23    30.09R
SOUTH BEND     SUNNY     72  49  44 N8        30.05R
ELKHART*       SUNNY     70  46  43 CALM      30.05R
GOSHEN         MOSUNNY   70  51  51 NW3       30.04S
ANGOLA*        SUNNY     72  52  49 N6        30.04S
FORT WAYNE     MOSUNNY   72  49  44 W8        30.06S
PERU/GRISSOM   MOSUNNY   71  51  48 NW3       30.04F

$$
INZ028>050-181600-
CENTRAL INDIANA

CITY           SKY/WX    TMP DP  RH WIND       PRES   REMARKS
LAFAYETTE      MOSUNNY   69  51  52 CALM      30.04F
KOKOMO*        MOSUNNY   72  48  43 CALM      30.05S
MUNCIE*        SUNNY     72  48  42 NE3       30.06F
INDIANAPOLIS   CLOUDY    68  45  43 E5        30.04S

$$
MIZ043>046-050>051-056>058-064>065-071>073-077>080-181600-
SOUTHWEST LOWER MICHIGAN

CITY           SKY/WX    TMP DP  RH WIND       PRES   REMARKS
BATTLE CREEK   MOSUNNY   68  44  42 NE13      30.07S
BENTON HARBOR  SUNNY     67  47  48 NE9       30.05S
COLDWATER*     SUNNY     68  48  48 N13       30.06R
HILLSDALE*     SUNNY     70  48  44 N10       30.06R
HOLLAND        SUNNY     69  41  36 NE10G17   30.07S
GRAND RAPIDS   PTSUNNY   67  36  31 NE13      30.08R
KALAMAZOO      SUNNY     69  45  41 NE10G20   30.07R
STURGIS*       SUNNY     70  48  46 CALM      30.04S
THREE RIVERS*  FAIR      68  49  49 NE10      30.06R

$$
OHZ001>008-015>018-024>025-181600-
NORTHWEST OHIO

CITY           SKY/WX    TMP DP  RH WIND       PRES   REMARKS
DEFIANCE       SUNNY     74  50  42 VRB7      30.05S
FINDLAY        SUNNY     73  48  41 CALM      30.05S
TOLEDO EXPRESS SUNNY     72  48  42 NW8       30.04S
TOLEDO METCALF MOSUNNY   72  47  40 NW7       30.04F
LIMA           MOSUNNY   71  48  43 NW6       30.07R

$$
AND FOR LAKE MICHIGAN COASTAL AND OPEN LAKE BUOY OBSERVATIONS

STATION/POSITION TEMP    WIND        PRES    VSBY  WAVE
                 AIR SEA DIR/SP/G                  HT/PER
                 (F)     (DEG/KT/KT) (MB)    (MI)  (FT/S)
CALUMET HARBOR    52     330/ 12/ 19   N/A
MICHIGAN CITY     53     350/ 13/ 15   N/A
BURNS HARBOR      51      40/  8/ 10 1018.6S
SAINT JOSEPH      50     340/  6/ 10 1018.3S
MICHIGAN CITY     47 47                N/A           0

$$
&&


USA.gov is the U.S. government's official web portal to all federal, state and local government web resources and services.